User: anonymous   Login
Location: Oshawa
(43.9000°N, 78.8670°W)
Time: 00:26:58
(UTC-04:00)
Language:

Iridium 98 - Orbit

View from above orbital plane
View from above orbital plane
View from above satellite
View from above satellite

Ground track
Ground track

The orbit data is extracted from the following two-line orbital elements,

1 27451U 02031B   15088.50585330  .00000679  00000-0  23550-3 0  9996
2 27451 086.4005 001.1019 0002143 077.9155 009.5780 14.34216410675104
Epoch (UTC): 29 March 2015 12:08:25
Eccentricity: 0.0002143
inclination: 86.4005°
perigee height: 776 km
apogee height: 779 km
right ascension of ascending node: 1.1019°
argument of perigee: 77.9155°
revolutions per day: 14.34216410
mean anomaly at epoch: 9.5780°
orbit number at epoch: 67510

The dashed part of the orbit path shows where the satellite is in the earth's shadow,  

DLR